GLO1023 SBRF-SBRF

Flight info

Callsign GLO1023
Flight time 0h 11m
Altitude FL320
Route OMNI/12 UB623 URBUT
Aircraft C172/L-S/N

Departure

Time 2026-05-07 00:30
Airport Recife/Guararapes - Gilberto Freyre International Airport (SBRF)

Arrival

Time 2026-05-07 00:41
Airport Recife/Guararapes - Gilberto Freyre International Airport (SBRF)
Time Latitude Longitude Altitude Speed Heading
2026-05-06 23:25 -3.85605 -32.42778 188 ft 0 kts 131°
2026-05-06 23:29 -3.85599 -32.42784 188 ft 2 kts 131°
2026-05-06 23:30 -3.85587 -32.42797 188 ft 3 kts 131°
2026-05-06 23:30 -3.85580 -32.42814 188 ft 0 kts 93°
2026-05-06 23:31 -3.85580 -32.42813 188 ft 1 kts 93°
2026-05-06 23:31 -3.85579 -32.42798 188 ft 3 kts 76°
2026-05-06 23:31 -3.85571 -32.42789 188 ft 4 kts 36°
2026-05-06 23:31 -3.85520 -32.42768 188 ft 7 kts 21°
2026-05-06 23:32 -3.85474 -32.42750 188 ft 8 kts 21°
2026-05-06 23:32 -3.85417 -32.42752 188 ft 8 kts 309°
2026-05-06 23:32 -3.85408 -32.42809 188 ft 9 kts 274°
2026-05-06 23:32 -3.85403 -32.42879 188 ft 12 kts 274°
2026-05-06 23:33 -3.85396 -32.42971 188 ft 14 kts 274°
2026-05-06 23:33 -3.85392 -32.43057 188 ft 10 kts 268°
2026-05-06 23:33 -3.85423 -32.43110 188 ft 6 kts 246°
2026-05-06 23:33 -3.85400 -32.43132 188 ft 5 kts
2026-05-06 23:34 -3.85383 -32.43111 188 ft 3 kts 95°
2026-05-06 23:34 -3.85392 -32.43026 188 ft 41 kts 95°
2026-05-06 23:34 -3.85437 -32.42420 188 ft 127 kts 95°
2026-05-06 23:34 -3.85502 -32.41416 612 ft 152 kts 96°
2026-05-06 23:35 -3.85578 -32.40294 1153 ft 181 kts 96°
2026-05-06 23:35 -3.85650 -32.39073 2302 ft 165 kts 95°
2026-05-06 23:35 -3.85702 -32.37781 2789 ft 213 kts 94°
2026-05-06 23:35 -3.85768 -32.36105 2981 ft 273 kts 96°
2026-05-06 23:36 -3.86353 -32.34063 2580 ft 343 kts 112°
2026-05-06 23:36 -3.86949 -32.31795 3881 ft 312 kts 105°
2026-05-06 23:36 -3.87398 -32.29871 4681 ft 292 kts 105°
2026-05-06 23:36 -3.87795 -32.28150 4326 ft 298 kts 105°
2026-05-06 23:37 -3.88306 -32.26016 2592 ft 333 kts 105°
2026-05-06 23:37 -3.88855 -32.23851 3372 ft 285 kts 106°
2026-05-06 23:37 -3.89304 -32.22123 4214 ft 239 kts 106°
2026-05-06 23:37 -3.89693 -32.20628 4568 ft 207 kts 107°
2026-05-06 23:38 -3.90006 -32.19305 4568 ft 193 kts 99°
2026-05-06 23:38 -3.90334 -32.18073 4555 ft 171 kts 122°
2026-05-06 23:38 -3.91030 -32.17240 4627 ft 147 kts 137°
2026-05-06 23:38 -3.91730 -32.16470 4386 ft 163 kts 130°
2026-05-06 23:39 -3.92237 -32.15310 4680 ft 208 kts 102°
2026-05-06 23:39 -3.92007 -32.13656 4663 ft 271 kts 73°
2026-05-06 23:39 -3.91228 -32.11895 5049 ft 277 kts 65°
2026-05-06 23:39 -3.90398 -32.10230 5716 ft 281 kts 64°
2026-05-06 23:40 -3.89458 -32.08431 6434 ft 286 kts 63°
2026-05-06 23:40 -3.88812 -32.06560 7118 ft 281 kts 84°
2026-05-06 23:40 -3.89008 -32.04652 7816 ft 277 kts 110°
2026-05-06 23:40 -3.90018 -32.03045 8522 ft 277 kts 136°
2026-05-06 23:41 -3.91423 -32.02140 9237 ft 279 kts 160°
2026-05-06 23:41 -3.93578 -32.01939 10576 ft 279 kts 187°
2026-05-06 23:41 -3.95448 -32.02649 11423 ft 304 kts 209°
2026-05-06 23:41 -3.96945 -32.04169 12561 ft 310 kts 234°
2026-05-06 23:42 -3.98042 -32.06019 13728 ft 314 kts 235°
2026-05-06 23:42 -3.99495 -32.07678 14727 ft 317 kts 220°
2026-05-06 23:42 -4.01154 -32.09082 15898 ft 315 kts 217°
2026-05-06 23:42 -4.02715 -32.10352 16842 ft 319 kts 217°
2026-05-06 23:43 -4.04535 -32.11843 17831 ft 323 kts 218°
2026-05-06 23:43 -4.06128 -32.13174 18632 ft 327 kts 219°
2026-05-06 23:43 -4.07860 -32.14640 19463 ft 332 kts 219°
2026-05-06 23:43 -4.09636 -32.16148 20293 ft 337 kts 220°
2026-05-06 23:44 -4.11431 -32.17670 21186 ft 342 kts 221°
2026-05-06 23:44 -4.12951 -32.18958 22019 ft 346 kts 221°
2026-05-06 23:44 -4.14821 -32.20543 22621 ft 356 kts 221°
2026-05-06 23:44 -4.16351 -32.21841 23387 ft 357 kts 221°
2026-05-06 23:45 -4.18173 -32.23386 23728 ft 374 kts 221°
2026-05-06 23:45 -4.19834 -32.24795 24637 ft 366 kts 221°
2026-05-06 23:45 -4.21924 -32.26566 25340 ft 376 kts 221°
2026-05-06 23:45 -4.23939 -32.28276 25746 ft 387 kts 221°
2026-05-06 23:46 -4.25981 -32.30047 26516 ft 389 kts 222°
2026-05-06 23:46 -4.28049 -32.31865 26917 ft 400 kts 222°
2026-05-06 23:46 -4.30091 -32.33657 28134 ft 383 kts 221°
2026-05-06 23:46 -4.32031 -32.35360 29599 ft 360 kts 221°
2026-05-06 23:47 -4.33705 -32.36830 30710 ft 348 kts 220°
2026-05-06 23:47 -4.35491 -32.38421 31393 ft 348 kts 221°
2026-05-06 23:47 -4.37281 -32.40020 31700 ft 359 kts 220°
2026-05-06 23:47 -4.39250 -32.41781 31955 ft 373 kts 220°
2026-05-06 23:48 -4.41222 -32.43545 31956 ft 393 kts 220°
2026-05-06 23:48 -4.43311 -32.45411 31954 ft 412 kts 220°
2026-05-06 23:48 -4.45178 -32.47081 31952 ft 427 kts 220°
2026-05-06 23:48 -4.47383 -32.49056 31941 ft 442 kts 224°
2026-05-06 23:49 -4.49631 -32.51069 31948 ft 454 kts 224°
2026-05-06 23:49 -4.52043 -32.53234 31949 ft 466 kts 224°
2026-05-06 23:49 -4.54513 -32.55474 31948 ft 476 kts 224°
2026-05-06 23:50 -4.59412 -32.59915 31947 ft 481 kts 224°
2026-05-06 23:50 -4.66900 -32.66625 31947 ft 480 kts 224°
2026-05-06 23:51 -4.71492 -32.70758 31948 ft 489 kts 221°
2026-05-06 23:51 -4.76081 -32.74845 31949 ft 504 kts 222°
2026-05-06 23:52 -4.81508 -32.79698 31949 ft 505 kts 221°
2026-05-06 23:52 -4.86710 -32.84372 31950 ft 504 kts 221°
2026-05-06 23:53 -4.91588 -32.88738 31950 ft 505 kts 222°
2026-05-06 23:53 -4.97171 -32.93727 31949 ft 505 kts 222°
2026-05-06 23:54 -5.02368 -32.98384 31949 ft 505 kts 221°
2026-05-06 23:54 -5.07572 -33.03064 31949 ft 505 kts 221°
2026-05-06 23:55 -5.12815 -33.07776 31964 ft 505 kts 222°
2026-05-06 23:55 -5.17580 -33.12228 32006 ft 503 kts 224°
2026-05-06 23:56 -5.20454 -33.14953 32263 ft 499 kts 223°
2026-05-06 23:56 -5.23086 -33.17258 32464 ft 501 kts 219°
2026-05-06 23:56 -5.25815 -33.19409 32650 ft 501 kts 219°
2026-05-06 23:56 -5.28479 -33.21644 32723 ft 502 kts 221°
2026-05-06 23:57 -5.31087 -33.23977 32606 ft 500 kts 223°
2026-05-06 23:57 -5.33646 -33.26287 32377 ft 492 kts 222°
2026-05-06 23:57 -5.36160 -33.28551 32086 ft 484 kts 222°
2026-05-06 23:57 -5.38658 -33.30796 31972 ft 494 kts 221°
2026-05-06 23:58 -5.41360 -33.33029 31958 ft 505 kts 218°
2026-05-06 23:58 -5.43992 -33.35047 31953 ft 509 kts 217°
2026-05-06 23:58 -5.48196 -33.38212 31953 ft 507 kts 217°
2026-05-06 23:59 -5.54704 -33.43199 31953 ft 507 kts 218°
2026-05-06 23:59 -5.60659 -33.47765 31953 ft 511 kts 216°
2026-05-07 00:00 -5.66319 -33.52093 31953 ft 510 kts 216°
2026-05-07 00:00 -5.71011 -33.55693 31953 ft 510 kts 217°
2026-05-07 00:01 -5.77609 -33.60733 31953 ft 510 kts 217°
2026-05-07 00:01 -5.83236 -33.65019 31951 ft 510 kts 217°
2026-05-07 00:02 -5.88866 -33.69313 31951 ft 509 kts 217°
2026-05-07 00:02 -5.94493 -33.73628 31951 ft 509 kts 216°
2026-05-07 00:03 -6.00081 -33.77918 31951 ft 509 kts 217°
2026-05-07 00:03 -6.05734 -33.82219 31954 ft 506 kts 218°
2026-05-07 00:04 -6.10238 -33.85675 31955 ft 505 kts 217°
2026-05-07 00:04 -6.15813 -33.89950 31954 ft 506 kts 218°
2026-05-07 00:05 -6.18681 -33.92143 31952 ft 491 kts 217°
2026-05-07 00:05 -6.21369 -33.94177 31952 ft 469 kts 218°
2026-05-07 00:05 -6.23936 -33.96167 31769 ft 454 kts 218°
2026-05-07 00:05 -6.26409 -33.98057 31262 ft 443 kts 217°
2026-05-07 00:06 -6.28759 -33.99835 30772 ft 432 kts 218°
2026-05-07 00:06 -6.31122 -34.01664 30268 ft 422 kts 219°
2026-05-07 00:06 -6.33432 -34.03434 29766 ft 414 kts 218°
2026-05-07 00:06 -6.35687 -34.05146 29267 ft 405 kts 219°
2026-05-07 00:07 -6.37910 -34.06870 28762 ft 398 kts 219°
2026-05-07 00:07 -6.40073 -34.08521 28259 ft 393 kts 218°
2026-05-07 00:07 -6.42254 -34.10178 27729 ft 388 kts 219°
2026-05-07 00:07 -6.44386 -34.11832 27200 ft 383 kts 219°
2026-05-07 00:08 -6.46501 -34.13447 26677 ft 385 kts 219°
2026-05-07 00:08 -6.48640 -34.15074 26152 ft 388 kts 219°
2026-05-07 00:08 -6.50772 -34.16729 25627 ft 386 kts 220°
2026-05-07 00:08 -6.52224 -34.17863 25263 ft 382 kts 220°
2026-05-07 00:09 -6.54957 -34.19987 24575 ft 380 kts 219°
2026-05-07 00:09 -6.57048 -34.21612 24048 ft 379 kts 219°
2026-05-07 00:09 -6.59118 -34.23222 23523 ft 376 kts 218°
2026-05-07 00:09 -6.61164 -34.24803 23001 ft 372 kts 217°
2026-05-07 00:10 -6.63157 -34.26316 22489 ft 368 kts 217°
2026-05-07 00:10 -6.65216 -34.27906 21950 ft 362 kts 217°
2026-05-07 00:10 -6.67212 -34.29436 21421 ft 357 kts 216°
2026-05-07 00:10 -6.69172 -34.30934 20896 ft 352 kts 217°
2026-05-07 00:11 -6.71104 -34.32429 20371 ft 348 kts 217°
2026-05-07 00:11 -6.73014 -34.33882 19845 ft 343 kts 217°
2026-05-07 00:11 -6.74891 -34.35332 19319 ft 339 kts 217°
2026-05-07 00:11 -6.76753 -34.36762 18793 ft 335 kts 216°
2026-05-07 00:12 -6.78601 -34.38171 18267 ft 332 kts 216°
2026-05-07 00:12 -6.80417 -34.39577 17741 ft 329 kts 216°
2026-05-07 00:12 -6.82226 -34.40958 17216 ft 326 kts 216°
2026-05-07 00:12 -6.84011 -34.42334 16690 ft 323 kts 216°
2026-05-07 00:13 -6.85777 -34.43690 16167 ft 320 kts 215°
2026-05-07 00:13 -6.87549 -34.45050 15638 ft 318 kts 216°
2026-05-07 00:13 -6.89294 -34.46394 15113 ft 316 kts 215°
2026-05-07 00:13 -6.91022 -34.47721 14590 ft 314 kts 215°
2026-05-07 00:14 -6.92756 -34.49050 14062 ft 312 kts 215°
2026-05-07 00:14 -6.94469 -34.50364 13539 ft 311 kts 215°
2026-05-07 00:14 -6.96185 -34.51662 13014 ft 309 kts 214°
2026-05-07 00:14 -6.97898 -34.52956 12488 ft 307 kts 214°
2026-05-07 00:15 -6.99605 -34.54256 11959 ft 306 kts 214°
2026-05-07 00:15 -7.01286 -34.55540 11436 ft 304 kts 214°
2026-05-07 00:15 -7.02965 -34.56825 10910 ft 303 kts 214°
2026-05-07 00:15 -7.04644 -34.58112 10381 ft 302 kts 214°
2026-05-07 00:16 -7.06278 -34.59363 10002 ft 293 kts 218°
2026-05-07 00:16 -7.07867 -34.60584 9743 ft 282 kts 217°
2026-05-07 00:16 -7.09400 -34.61760 9524 ft 271 kts 217°
2026-05-07 00:16 -7.10858 -34.62880 9344 ft 261 kts 217°
2026-05-07 00:17 -7.12285 -34.63977 9166 ft 256 kts 217°
2026-05-07 00:17 -7.13691 -34.65056 8989 ft 252 kts 217°
2026-05-07 00:17 -7.15083 -34.66125 8814 ft 254 kts 217°
2026-05-07 00:17 -7.16494 -34.67211 8638 ft 256 kts 216°
2026-05-07 00:18 -7.17902 -34.68294 8462 ft 255 kts 216°
2026-05-07 00:18 -7.19302 -34.69374 8286 ft 254 kts 216°
2026-05-07 00:18 -7.20700 -34.70453 8110 ft 254 kts 216°
2026-05-07 00:18 -7.22102 -34.71512 7935 ft 253 kts 215°
2026-05-07 00:19 -7.23505 -34.72594 7758 ft 253 kts 216°
2026-05-07 00:19 -7.24896 -34.73675 7582 ft 253 kts 216°
2026-05-07 00:19 -7.26274 -34.74744 7408 ft 252 kts 216°
2026-05-07 00:19 -7.27668 -34.75825 7231 ft 252 kts 216°
2026-05-07 00:20 -7.29056 -34.76901 7054 ft 251 kts 216°
2026-05-07 00:20 -7.30432 -34.77968 6879 ft 251 kts 216°
2026-05-07 00:20 -7.31805 -34.79033 6703 ft 251 kts 216°
2026-05-07 00:20 -7.32928 -34.79902 6561 ft 250 kts 216°
2026-05-07 00:21 -7.34566 -34.81170 6350 ft 249 kts 216°
2026-05-07 00:21 -7.35922 -34.82224 6175 ft 247 kts 216°
2026-05-07 00:21 -7.37281 -34.83278 5998 ft 247 kts 216°
2026-05-07 00:21 -7.38636 -34.84328 5823 ft 246 kts 216°
2026-05-07 00:22 -7.39986 -34.85375 5648 ft 245 kts 216°
2026-05-07 00:22 -7.41324 -34.86413 5471 ft 243 kts 216°
2026-05-07 00:22 -7.42662 -34.87450 5294 ft 242 kts 216°
2026-05-07 00:22 -7.43985 -34.88477 5119 ft 241 kts 215°
2026-05-07 00:23 -7.45314 -34.89507 4943 ft 240 kts 215°
2026-05-07 00:23 -7.46635 -34.90531 4766 ft 239 kts 215°
2026-05-07 00:23 -7.47947 -34.91548 4591 ft 239 kts 215°
2026-05-07 00:23 -7.49252 -34.92561 4414 ft 238 kts 215°
2026-05-07 00:24 -7.50563 -34.93577 4238 ft 237 kts 215°
2026-05-07 00:24 -7.51864 -34.94586 4062 ft 236 kts 215°
2026-05-07 00:24 -7.53168 -34.95595 3885 ft 235 kts 215°
2026-05-07 00:24 -7.54456 -34.96592 3709 ft 234 kts 215°
2026-05-07 00:25 -7.55736 -34.97595 3534 ft 233 kts 215°
2026-05-07 00:25 -7.57020 -34.98594 3358 ft 233 kts 214°
2026-05-07 00:25 -7.58293 -34.99580 3183 ft 232 kts 214°
2026-05-07 00:25 -7.59574 -35.00572 3006 ft 232 kts 214°
2026-05-07 00:26 -7.60854 -35.01565 2829 ft 232 kts 214°
2026-05-07 00:26 -7.62136 -35.02560 2654 ft 235 kts 214°
2026-05-07 00:26 -7.63413 -35.03551 2480 ft 234 kts 214°
2026-05-07 00:26 -7.64700 -35.04549 2303 ft 232 kts 214°
2026-05-07 00:27 -7.64807 -35.04631 2288 ft 231 kts 214°
2026-05-07 00:27 -7.65460 -35.05137 2197 ft 228 kts 214°
2026-05-07 00:27 -7.66697 -35.06074 2028 ft 218 kts 211°
2026-05-07 00:27 -7.68054 -35.06585 1827 ft 205 kts 185°
2026-05-07 00:28 -7.69429 -35.06411 1693 ft 195 kts 165°
2026-05-07 00:28 -7.70694 -35.06032 1669 ft 185 kts 162°
2026-05-07 00:28 -7.71876 -35.05658 1691 ft 174 kts 162°
2026-05-07 00:28 -7.73012 -35.05299 1716 ft 167 kts 162°
2026-05-07 00:29 -7.74096 -35.04956 1735 ft 159 kts 162°
2026-05-07 00:29 -7.75106 -35.04637 1682 ft 147 kts 161°
2026-05-07 00:30 -7.77696 -35.03812 1701 ft 144 kts 161°
2026-05-07 00:30 -7.78651 -35.03505 1702 ft 143 kts 161°
2026-05-07 00:30 -7.79594 -35.03203 1701 ft 143 kts 161°
2026-05-07 00:30 -7.80530 -35.02903 1685 ft 134 kts 161°
2026-05-07 00:31 -7.81360 -35.02639 1664 ft 117 kts 161°
2026-05-07 00:31 -7.82106 -35.02394 1729 ft 113 kts 161°
2026-05-07 00:31 -7.82848 -35.02144 1697 ft 114 kts 160°
2026-05-07 00:31 -7.83610 -35.01896 1704 ft 114 kts 161°
2026-05-07 00:32 -7.84366 -35.01649 1699 ft 114 kts 161°
2026-05-07 00:32 -7.85117 -35.01399 1701 ft 114 kts 161°
2026-05-07 00:32 -7.85866 -35.01158 1700 ft 114 kts 161°
2026-05-07 00:32 -7.86615 -35.00910 1700 ft 114 kts 161°
2026-05-07 00:33 -7.87367 -35.00658 1702 ft 114 kts 160°
2026-05-07 00:33 -7.88118 -35.00409 1701 ft 115 kts 161°
2026-05-07 00:33 -7.88872 -35.00159 1704 ft 115 kts 161°
2026-05-07 00:33 -7.89640 -34.99906 1705 ft 115 kts 161°
2026-05-07 00:34 -7.90400 -34.99655 1703 ft 115 kts 161°
2026-05-07 00:34 -7.91164 -34.99402 1704 ft 115 kts 161°
2026-05-07 00:34 -7.91919 -34.99149 1705 ft 115 kts 161°
2026-05-07 00:34 -7.92680 -34.98897 1704 ft 115 kts 161°
2026-05-07 00:35 -7.93447 -34.98682 1703 ft 115 kts 166°
2026-05-07 00:35 -7.94242 -34.98568 1706 ft 115 kts 171°
2026-05-07 00:35 -7.95016 -34.98385 1698 ft 115 kts 161°
2026-05-07 00:35 -7.95732 -34.98025 1718 ft 115 kts 153°
2026-05-07 00:36 -7.96471 -34.97699 1699 ft 115 kts 158°
2026-05-07 00:36 -7.96974 -34.97514 1708 ft 115 kts 160°
2026-05-07 00:36 -7.97974 -34.97171 1704 ft 115 kts 161°
2026-05-07 00:36 -7.98733 -34.96921 1704 ft 115 kts 161°
2026-05-07 00:37 -7.99500 -34.96674 1705 ft 115 kts 161°
2026-05-07 00:37 -8.00255 -34.96424 1705 ft 115 kts 161°
2026-05-07 00:37 -8.01015 -34.96171 1704 ft 115 kts 161°
2026-05-07 00:37 -8.01775 -34.95929 1705 ft 115 kts 162°
2026-05-07 00:38 -8.02534 -34.95685 1705 ft 115 kts 161°
2026-05-07 00:38 -8.03295 -34.95425 1704 ft 115 kts 160°
2026-05-07 00:38 -8.04056 -34.95166 1657 ft 116 kts 161°
2026-05-07 00:38 -8.04821 -34.94929 1501 ft 115 kts 162°
2026-05-07 00:39 -8.05582 -34.94697 1345 ft 115 kts 162°
2026-05-07 00:39 -8.06347 -34.94456 1190 ft 115 kts 162°
2026-05-07 00:39 -8.07114 -34.94202 1036 ft 116 kts 161°
2026-05-07 00:39 -8.07879 -34.93946 881 ft 116 kts 161°
2026-05-07 00:40 -8.08641 -34.93690 728 ft 116 kts 161°
2026-05-07 00:40 -8.09398 -34.93429 575 ft 116 kts 160°
2026-05-07 00:40 -8.10159 -34.93169 422 ft 116 kts 161°
2026-05-07 00:40 -8.10922 -34.92910 269 ft 116 kts 161°
2026-05-07 00:41 -8.11682 -34.92650 114 ft 116 kts 161°
2026-05-07 00:41 -8.12422 -34.92411 42 ft 102 kts 161°
2026-05-07 00:41 -8.12900 -34.92250 41 ft 43 kts 162°
2026-05-07 00:41 -8.13164 -34.92163 41 ft 38 kts 162°
2026-05-07 00:42 -8.13397 -34.92084 41 ft 33 kts 162°
2026-05-07 00:42 -8.13530 -34.92041 41 ft 16 kts 161°
2026-05-07 00:42 -8.13587 -34.92004 41 ft 7 kts 128°
2026-05-07 00:42 -8.13625 -34.91954 41 ft 11 kts 127°
2026-05-07 00:43 -8.13654 -34.91914 41 ft 4 kts 120°
2026-05-07 00:43 -8.13644 -34.91888 41 ft 5 kts 37°
2026-05-07 00:43 -8.13600 -34.91879 41 ft 8 kts 345°
2026-05-07 00:43 -8.13560 -34.91890 41 ft 5 kts
2026-05-07 00:44 -8.13540 -34.91860 41 ft 6 kts 78°
2026-05-07 00:44 -8.13527 -34.91821 41 ft 4 kts 70°
2026-05-07 00:44 -8.13522 -34.91810 41 ft 0 kts 70°